GW4533 Weather Reports


time (UTC)temp
C
wind
direction
speed
KPH
gust
KPH
rain 1hr
cm
rain 24hr
cm
rain mn
cm
humidity
%
barometer
mb
20260510204542 16 337 6.4 9.7 0.00 0.00 0.00 39 1019.8
20260510204039 17 353 0.0 4.8 0.00 0.00 0.00 39 1019.5
20260510203536 16 131 0.0 1.6 0.00 0.00 0.00 38 1019.7
20260510203032 16 294 3.2 6.4 0.00 0.00 0.00 39 1019.7
20260510202526 17 284 1.6 4.8 0.00 0.00 0.00 39 1019.7
20260510202023 16 123 0.0 3.2 0.00 0.00 0.00 39 1019.9
20260510201520 16 221 1.6 1.6 0.00 0.00 0.00 39 1019.6
20260510201016 16 317 0.0 0.0 0.00 0.00 0.00 42 1019.9
20260510200512 17 9 1.6 4.8 0.00 0.00 0.00 39 1020.0
20260510200010 17 263 1.6 6.4 0.00 0.00 0.00 37 1019.7
20260510195508 17 228 0.0 3.2 0.00 0.00 0.00 39 1019.8
20260510195003 17 131 3.2 6.4 0.00 0.00 0.00 39 1019.8
20260510194459 17 22 3.2 3.2 0.00 0.00 0.00 39 1019.8
20260510193955 16 288 1.6 3.2 0.00 0.00 0.00 38 1019.8
20260510193450 17 299 3.2 3.2 0.00 0.00 0.00 37 1020.0
20260510192946 17 338 3.2 3.2 0.00 0.00 0.00 39 1019.8
20260510192446 17 154 0.0 0.0 0.00 0.00 0.00 37 1019.9
20260510191942 17 154 0.0 0.0 0.00 0.00 0.00 37 1019.6
20260510191438 17 102 3.2 4.8 0.00 0.00 0.00 40 1019.6
20260510190935 17 102 3.2 4.8 0.00 0.00 0.00 40 1019.8
20260510190433 17 2 1.6 1.6 0.00 0.00 0.00 39 1019.6
20260510185929 17 134 0.0 1.6 0.00 0.00 0.00 39 1019.7
20260510185427 16 147 0.0 1.6 0.00 0.00 0.00 40 1019.8
20260510184924 16 273 1.6 3.2 0.00 0.00 0.00 39 1019.7
20260510184421 16 1 3.2 4.8 0.00 0.00 0.00 38 1020.0
20260510183920 17 272 0.0 3.2 0.00 0.00 0.00 37 1019.7
20260510183417 17 298 1.6 3.2 0.00 0.00 0.00 42 1019.8
20260510182912 17 350 3.2 4.8 0.00 0.00 0.00 42 1019.8
20260510182409 16 155 1.6 3.2 0.00 0.00 0.00 39 1019.7
20260510181904 16 274 1.6 6.4 0.00 0.00 0.00 41 1019.5
20260510181402 16 325 1.6 4.8 0.00 0.00 0.00 46 1019.7
20260510180858 17 169 1.6 1.6 0.00 0.00 0.00 42 1019.3
20260510180355 16 344 6.4 9.7 0.00 0.00 0.00 46 1019.3
20260510175853 16 177 1.6 3.2 0.00 0.00 0.00 43 1019.3
20260510175348 15 151 1.6 4.8 0.00 0.00 0.00 45 1019.2
20260510174844 16 321 3.2 4.8 0.00 0.00 0.00 44 1019.3
20260510174342 16 315 1.6 6.4 0.00 0.00 0.00 45 1019.6
20260510173838 16 317 0.0 3.2 0.00 0.00 0.00 46 1019.4
20260510173334 16 270 1.6 3.2 0.00 0.00 0.00 45 1019.3
20260510172830 16 122 1.6 9.7 0.00 0.00 0.00 47 1019.3
20260510172327 15 329 1.6 4.8 0.00 0.00 0.00 48 1019.6
20260510171823 16 25 3.2 3.2 0.00 0.00 0.00 52 1019.6
20260510171321 15 156 1.6 3.2 0.00 0.00 0.00 47 1019.7
20260510170818 15 31 1.6 4.8 0.00 0.00 0.00 47 1019.7
20260510170314 15 297 1.6 3.2 0.00 0.00 0.00 51 1019.7
20260510165809 15 304 4.8 4.8 0.00 0.00 0.00 48 1019.7
20260510165307 15 158 0.0 3.2 0.00 0.00 0.00 44 1019.6
20260510164804 15 187 3.2 3.2 0.00 0.00 0.00 45 1019.8
20260510164301 15 334 1.6 4.8 0.00 0.00 0.00 48 1019.8
20260510163800 15 116 0.0 4.8 0.00 0.00 0.00 47 1019.6
20260510163256 14 63 1.6 3.2 0.00 0.00 0.00 51 1019.6
20260510162756 15 314 3.2 4.8 0.00 0.00 0.00 48 1019.6
20260510162254 15 169 3.2 9.7 0.00 0.00 0.00 49 1019.7
20260510161744 15 4 1.6 4.8 0.00 0.00 0.00 54 1019.4
20260510161240 13 342 3.2 9.7 0.00 0.00 0.00 52 1019.5
20260510160738 14 346 9.7 12.9 0.00 0.00 0.00 51 1019.5
20260510160233 13 314 1.6 4.8 0.00 0.00 0.00 56 1019.4
20260510155729 14 343 6.4 9.7 0.00 0.00 0.00 51 1019.5
20260510155224 15 310 3.2 4.8 0.00 0.00 0.00 50 1019.5
20260510154721 13 133 3.2 9.7 0.00 0.00 0.00 52 1019.3
20260510154217 13 149 0.0 4.8 0.00 0.00 0.00 54 1019.5
20260510153712 14 112 3.2 9.7 0.00 0.00 0.00 51 1019.4
20260510153208 14 304 3.2 4.8 0.00 0.00 0.00 52 1019.1
20260510152705 13 197 1.6 4.8 0.00 0.00 0.00 55 1019.2
20260510152201 13 340 1.6 3.2 0.00 0.00 0.00 54 1019.1
20260510151658 13 169 1.6 4.8 0.00 0.00 0.00 51 1018.9
20260510151156 13 94 1.6 9.7 0.00 0.00 0.00 56 1019.0
20260510150652 13 18 1.6 4.8 0.00 0.00 0.00 59 1018.9
20260510150147 14 126 1.6 6.4 0.00 0.00 0.00 56 1018.9
20260510145644 13 282 0.0 3.2 0.00 0.00 0.00 63 1018.7
20260510145140 13 273 3.2 3.2 0.00 0.00 0.00 62 1018.6
20260510144636 12 255 1.6 9.7 0.00 0.00 0.00 63 1018.6
20260510144133 12 344 3.2 4.8 0.00 0.00 0.00 61 1018.7
20260510143628 12 84 0.0 3.2 0.00 0.00 0.00 65 1018.4
20260510143125 12 5 0.0 1.6 0.00 0.00 0.00 63 1018.2
20260510142621 11 41 0.0 11.3 0.00 0.00 0.00 63 1018.3
20260510142118 12 342 1.6 6.4 0.00 0.00 0.00 64 1018.1
20260510141615 12 342 0.0 4.8 0.00 0.00 0.00 66 1018.0
20260510141113 12 308 3.2 6.4 0.00 0.00 0.00 64 1018.1
20260510140609 12 335 1.6 3.2 0.00 0.00 0.00 67 1018.1
20260510140109 12 96 0.0 1.6 0.00 0.00 0.00 69 1018.0
20260510135604 12 170 0.0 6.4 0.00 0.00 0.00 68 1018.0
20260510135101 12 349 1.6 3.2 0.00 0.00 0.00 71 1018.1
20260510134558 11 143 0.0 11.3 0.00 0.00 0.00 71 1018.0
20260510134055 11 289 1.6 1.6 0.00 0.00 0.00 72 1018.0
20260510133551 10 107 3.2 6.4 0.00 0.00 0.00 75 1018.0
20260510133047 10 85 0.0 3.2 0.00 0.00 0.00 77 1018.0
20260510132543 10 342 0.0 4.8 0.00 0.00 0.00 76 1018.0
20260510132040 10 96 3.2 4.8 0.00 0.00 0.00 78 1018.1
20260510131538 9 129 0.0 3.2 0.00 0.00 0.00 78 1017.7
20260510131035 9 356 1.6 11.3 0.00 0.00 0.00 78 1017.8
20260510130531 9 7 0.0 0.0 0.00 0.00 0.00 80 1017.4
20260510130029 9 342 0.0 1.6 0.00 0.00 0.00 81 1017.4
20260510125525 9 93 0.0 0.0 0.00 0.00 0.00 81 1017.7
20260510125022 9 92 0.0 1.6 0.00 0.00 0.00 81 1017.4
20260510124518 9 284 3.2 4.8 0.00 0.00 0.00 82 1017.7
20260510124015 8 40 0.0 1.6 0.00 0.00 0.00 82 1017.3
20260510123510 8 341 0.0 1.6 0.00 0.00 0.00 82 1017.2
20260510123007 8 13 1.6 1.6 0.00 0.00 0.00 82 1016.9
20260510122502 8 264 0.0 3.2 0.00 0.00 0.00 82 1016.7
20260510121959 8 86 3.2 6.4 0.00 0.00 0.00 81 1016.7
20260510121456 8 143 0.0 1.6 0.00 0.00 0.00 81 1016.7
20260510120953 8 125 0.0 0.0 0.00 0.00 0.00 81 1016.9
20260510120450 8 125 0.0 1.6 0.00 0.00 0.00 80 1016.7
20260510115946 8 298 0.0 1.6 0.00 0.00 0.00 80 1016.7
20260510115444 8 338 0.0 1.6 0.00 0.00 0.00 78 1016.3
20260510114939 8 349 0.0 3.2 0.00 0.00 0.00 78 1016.1
20260510114436 8 266 0.0 0.0 0.00 0.00 0.00 79 1015.9
20260510113932 8 250 0.0 0.0 0.00 0.00 0.00 78 1016.2
20260510113427 8 80 0.0 0.0 0.00 0.00 0.00 78 1015.9
20260510112925 8 11 0.0 1.6 0.00 0.00 0.00 78 1016.0
20260510112422 8 9 1.6 3.2 0.00 0.00 0.00 77 1015.9
20260510111918 8 262 0.0 0.0 0.00 0.00 0.00 77 1015.6
20260510111414 8 346 0.0 1.6 0.00 0.00 0.00 78 1015.4
20260510110910 8 321 0.0 1.6 0.00 0.00 0.00 78 1015.5
20260510110407 8 277 0.0 0.0 0.00 0.00 0.00 79 1015.3
20260510105902 8 7 0.0 1.6 0.00 0.00 0.00 78 1015.3
20260510105357 8 292 0.0 0.0 0.00 0.00 0.00 79 1015.2
20260510104853 8 279 0.0 0.0 0.00 0.00 0.00 79 1015.2
20260510104350 8 337 1.6 1.6 0.00 0.00 0.00 79 1014.8
20260510103846 8 246 0.0 0.0 0.00 0.00 0.00 80 1014.7
20260510103344 8 246 0.0 0.0 0.00 0.00 0.00 81 1014.8
20260510102839 8 278 0.0 0.0 0.00 0.00 0.00 80 1014.7
20260510102335 8 281 0.0 0.0 0.00 0.00 0.00 81 1014.8
20260510101832 8 279 0.0 0.0 0.00 0.00 0.00 82 1014.4
20260510101330 8 280 0.0 0.0 0.00 0.00 0.00 82 1014.3
20260510100825 7 282 0.0 0.0 0.00 0.00 0.00 82 1014.1
20260510100324 7 312 0.0 0.0 0.00 0.00 0.00 82 1014.1
20260510095820 7 266 0.0 0.0 0.00 0.00 0.00 82 1014.3
20260510095314 7 266 0.0 0.0 0.00 0.00 0.00 83 1014.0
20260510094809 7 266 0.0 0.0 0.00 0.00 0.00 83 1014.0
20260510094304 7 277 0.0 0.0 0.00 0.00 0.00 83 1014.0
20260510093801 7 281 0.0 0.0 0.00 0.00 0.00 83 1014.2
20260510093257 7 281 0.0 0.0 0.00 0.00 0.00 82 1014.0
20260510092753 7 305 0.0 0.0 0.00 0.00 0.00 82 1013.9
20260510092249 7 256 0.0 0.0 0.00 0.00 0.00 83 1014.0
20260510091745 7 256 0.0 0.0 0.00 0.00 0.00 83 1013.8
20260510091243 7 256 0.0 0.0 0.00 0.00 0.00 82 1013.8
20260510090739 7 255 0.0 0.0 0.00 0.00 0.00 82 1013.7
20260510090236 7 298 0.0 0.0 0.00 0.00 0.00 81 1013.8
20260510085731 8 301 0.0 0.0 0.00 0.00 0.00 80 1013.8
20260510085225 8 301 0.0 0.0 0.00 0.00 0.00 80 1013.8
20260510084722 8 279 0.0 0.0 0.00 0.00 0.00 80 1013.6
20260510084219 8 277 0.0 0.0 0.00 0.00 0.00 79 1013.4
20260510083715 8 341 0.0 0.0 0.00 0.00 0.00 78 1013.3
20260510083213 8 329 0.0 1.6 0.00 0.00 0.00 76 1013.5
20260510082709 8 133 0.0 0.0 0.00 0.00 0.00 78 1013.2
20260510082205 8 133 0.0 3.2 0.00 0.00 0.00 76 1013.0
20260510081705 9 338 0.0 1.6 0.00 0.00 0.00 76 1012.9
20260510081201 9 276 0.0 0.0 0.00 0.00 0.00 77 1012.9
20260510080700 9 298 0.0 0.0 0.00 0.00 0.00 78 1013.0
20260510080157 9 330 0.0 1.6 0.00 0.00 0.00 79 1012.9
20260510075654 9 169 0.0 0.0 0.00 0.00 0.00 80 1013.0
20260510075152 10 318 0.0 1.6 0.00 0.00 0.00 80 1012.8
20260510074649 10 128 0.0 1.6 0.00 0.00 0.00 82 1013.0
20260510074144 10 111 0.0 3.2 0.00 0.00 0.00 82 1012.9
20260510073641 10 352 3.2 4.8 0.00 0.00 0.00 84 1012.9
20260510073137 10 149 0.0 3.2 0.00 0.00 0.00 84 1012.8
20260510072633 10 291 0.0 1.6 0.00 0.00 0.00 85 1012.6
20260510072130 10 112 0.0 1.6 0.00 0.00 0.00 86 1012.8
20260510071626 11 256 1.6 11.3 0.00 0.00 0.00 86 1012.3
20260510071124 11 117 1.6 1.6 0.00 0.00 0.00 87 1012.4
20260510070621 11 15 3.2 4.8 0.00 0.00 0.00 86 1012.3
20260510070118 11 273 1.6 1.6 0.00 0.00 0.00 85 1012.1
20260510065614 12 292 3.2 6.4 0.00 0.00 0.00 84 1012.0
20260510065110 12 326 3.2 4.8 0.00 0.00 0.00 83 1012.0
20260510064607 12 256 1.6 1.6 0.00 0.00 0.00 83 1011.9
20260510064104 12 297 3.2 3.2 0.00 0.00 0.00 82 1011.8
20260510063601 13 255 3.2 4.8 0.00 0.00 0.00 83 1011.8
20260510063058 13 331 0.0 6.4 0.00 0.00 0.00 83 1011.8
20260510062553 13 336 3.2 4.8 0.00 0.00 0.00 84 1011.7
20260510062048 13 307 1.6 3.2 0.00 0.00 0.00 85 1011.8
20260510061545 13 346 0.0 1.6 0.00 0.00 0.00 86 1011.7
20260510061042 13 280 1.6 3.2 0.00 0.00 0.00 85 1011.7
20260510060538 13 318 1.6 6.4 0.00 0.00 0.00 85 1011.7
20260510060034 13 190 0.0 1.6 0.00 0.00 0.00 85 1011.6
20260510055531 13 277 0.0 1.6 0.00 0.00 0.00 85 1011.4
20260510055029 13 320 3.2 6.4 0.00 0.00 0.00 85 1011.5
20260510054525 13 309 3.2 3.2 0.00 0.00 0.00 85 1011.2
20260510054020 13 254 1.6 3.2 0.00 0.00 0.00 86 1011.3
20260510053515 13 333 0.0 0.0 0.00 0.00 0.00 87 1011.1
20260510053012 13 333 1.6 1.6 0.00 0.00 0.00 86 1011.0
20260510052508 13 113 0.0 3.2 0.00 0.00 0.00 87 1011.0
20260510051959 13 263 0.0 0.0 0.00 0.00 0.00 87 1010.9
20260510051454 13 278 0.0 1.6 0.00 0.00 0.00 87 1010.9
20260510050951 13 274 0.0 3.2 0.00 0.00 0.00 87 1010.9
20260510050449 13 345 1.6 3.2 0.00 0.00 0.00 88 1010.8
20260510045945 13 226 0.0 0.0 0.00 0.00 0.00 88 1010.8
20260510045443 13 312 0.0 1.6 0.00 0.00 0.00 88 1010.8
20260510044939 13 239 0.0 1.6 0.00 0.00 0.00 87 1010.9
20260510044436 13 118 0.0 3.2 0.00 0.00 0.00 89 1010.6
20260510043933 13 270 0.0 3.2 0.00 0.00 0.00 89 1010.8
20260510043428 13 271 1.6 1.6 0.00 0.00 0.00 89 1010.8
20260510042927 13 185 0.0 3.2 0.00 0.00 0.00 90 1010.8
20260510042423 13 150 1.6 1.6 0.00 0.00 0.00 90 1010.8
20260510041918 13 359 1.6 6.4 0.00 0.00 0.00 89 1010.9
20260510041416 13 176 3.2 4.8 0.00 0.00 0.00 88 1011.2
20260510040914 13 236 1.6 6.4 0.00 0.00 0.00 89 1010.9
20260510040410 12 250 6.4 11.3 0.00 0.00 0.00 97 1010.9
20260510035906 12 216 0.0 0.0 0.00 0.79 0.79 98 1010.5
20260510035402 12 216 0.0 0.0 0.00 0.79 0.79 98 1010.2
20260510034857 11 216 0.0 0.0 0.00 0.79 0.79 98 1010.5
20260510034356 11 216 0.0 0.0 0.00 0.79 0.79 97 1010.5
20260510033852 11 216 0.0 0.0 0.00 0.79 0.79 97 1010.3
20260510033348 11 216 0.0 0.0 0.00 0.79 0.79 97 1010.2
20260510032844 11 216 0.0 0.0 0.00 0.79 0.79 97 1010.2
20260510032342 11 216 0.0 0.0 0.00 0.79 0.79 97 1010.5
20260510031837 11 216 0.0 0.0 0.00 0.79 0.79 97 1010.6
20260510031333 11 216 0.0 0.0 0.00 0.79 0.79 97 1010.5
20260510030833 12 241 0.0 0.0 0.00 0.79 0.79 97 1010.3
20260510030329 12 264 0.0 0.0 0.00 0.79 0.79 96 1010.4
20260510025826 12 264 0.0 0.0 0.00 0.79 0.79 96 1010.5
20260510025324 12 344 0.0 0.0 0.00 0.79 0.79 96 1010.4
20260510024821 12 344 0.0 0.0 0.00 0.79 0.79 96 1010.8
20260510024318 12 344 0.0 0.0 0.00 0.79 0.79 96 1010.4
20260510023814 12 344 0.0 0.0 0.00 0.79 0.79 96 1010.2
20260510023310 12 344 0.0 0.0 0.00 0.79 0.79 96 1010.3
20260510022808 12 344 0.0 0.0 0.00 0.79 0.79 96 1010.2
20260510022307 12 335 0.0 0.0 0.00 0.79 0.79 96 1010.3
20260510021806 12 335 0.0 0.0 0.00 0.79 0.79 96 1010.1
20260510021304 12 336 0.0 0.0 0.00 0.79 0.79 95 1010.2
20260510020800 12 336 0.0 0.0 0.00 0.79 0.79 95 1010.1
20260510020259 12 336 0.0 0.0 0.00 0.79 0.79 95 1009.7
20260510015755 12 336 0.0 0.0 0.00 0.79 0.79 95 1009.8
20260510015252 12 295 0.0 0.0 0.13 0.79 0.79 95 1009.8
20260510014748 12 293 0.0 1.6 0.13 0.79 0.79 95 1010.1
20260510014245 12 286 1.6 1.6 0.00 0.76 0.76 95 1009.6
20260510013741 12 176 0.0 0.0 0.00 0.76 0.76 95 1009.1
20260510013237 12 176 0.0 0.0 0.00 0.76 0.76 95 1009.1
20260510012737 12 176 0.0 0.0 0.00 0.76 0.76 95 1009.4
20260510012232 12 176 0.0 0.0 0.00 0.76 0.76 95 1009.3
20260510011732 12 237 0.0 0.0 0.00 0.76 0.76 95 1009.0
20260510011228 -17 0.0 0.0 0.00 0.76 0.76 1009.1
20260510010725 12 311 0.0 0.0 0.00 0.76 0.76 95 1009.2
20260510010221 12 311 0.0 0.0 0.00 0.76 0.76 95 1009.1
20260510005718 12 311 0.0 0.0 0.00 0.76 0.76 95 1009.2
20260510005214 12 311 0.0 0.0 0.00 0.76 0.76 95 1009.1
20260510004712 12 311 0.0 0.0 0.00 0.76 0.76 94 1009.1
20260510004210 12 311 0.0 0.0 0.00 0.76 0.76 94 1009.0
20260510003707 12 311 0.0 0.0 0.00 0.76 0.76 94 1008.9
20260510003203 12 311 0.0 0.0 0.00 0.76 0.76 94 1009.2
20260510002657 12 304 0.0 0.0 0.00 0.76 0.76 93 1008.9
20260510002155 12 300 0.0 1.6 0.00 0.76 0.76 93 1008.9
20260510001652 12 250 1.6 1.6 0.00 0.76 0.76 93 1009.1
20260510001151 13 13 1.6 1.6 0.18 0.76 0.76 93 1008.9
20260510000651 13 259 0.0 0.0 0.18 0.76 0.76 92 1009.1
20260510000149 13 329 0.0 0.0 0.18 0.74 0.74 91 1009.3
20260509235645 13 354 1.6 1.6 0.18 0.74 0.74 90 1009.5
20260509235141 13 297 1.6 3.2 0.13 0.71 0.71 89 1009.2
20260509234637 13 16 1.6 3.2 0.13 0.71 0.71 89 1009.2
20260509234135 14 219 0.0 1.6 0.00 0.69 0.69 85 1008.9
20260509233633 17 261 8.0 11.3 0.00 0.69 0.69 73 1008.7
20260509233130 18 282 3.2 4.8 0.00 0.69 0.69 68 1009.0
20260509232626 18 353 1.6 3.2 0.00 0.69 0.69 64 1007.7
20260509232123 18 146 3.2 4.8 0.00 0.69 0.69 65 1007.6
20260509231619 18 308 1.6 3.2 0.00 0.69 0.69 64 1007.7
20260509231117 18 149 4.8 6.4 0.00 0.69 0.69 63 1007.3
20260509230614 19 238 3.2 3.2 0.00 0.69 0.69 60 1007.2
20260509230111 19 209 6.4 9.7 0.00 0.69 0.69 60 1007.2
20260509225607 19 236 6.4 11.3 0.00 0.69 0.69 58 1007.3
20260509225102 20 263 1.6 3.2 0.00 0.69 0.69 58 1007.3
20260509224558 -17 0.0 0.0 0.00 0.69 0.69 1007.3
20260509224055 19 236 3.2 6.4 0.00 0.69 0.69 59 1007.3
20260509223552 19 236 3.2 6.4 0.00 0.69 0.69 59 1007.3
20260509223050 -17 0.0 0.0 0.00 0.69 0.69 1007.1
20260509222545 -17 0.0 0.0 0.00 0.69 0.69 1007.3
20260509222042 20 231 8.0 11.3 0.00 0.69 0.69 57 1007.1
20260509221537 20 274 6.4 6.4 0.00 0.69 0.69 57 1007.2
20260509221033 20 99 4.8 4.8 0.00 0.69 0.69 56 1007.1
20260509220530 20 245 6.4 12.9 0.00 0.69 0.69 57 1007.3
20260509220026 20 290 6.4 9.7 0.00 0.69 0.69 56 1007.2
20260509215521 20 271 3.2 4.8 0.00 0.69 0.69 57 1007.5
20260509215019 20 284 1.6 4.8 0.00 0.69 0.69 55 1007.3
20260509214516 20 249 8.0 9.7 0.00 0.69 0.69 55 1007.0
20260509214013 20 238 3.2 9.7 0.00 0.69 0.69 53 1007.1
20260509213509 20 281 9.7 12.9 0.00 0.69 0.69 54 1007.0
20260509213006 20 254 9.7 12.9 0.00 0.69 0.69 56 1007.2
20260509212503 20 85 6.4 9.7 0.00 0.69 0.69 55 1007.2
20260509212000 20 95 6.4 9.7 0.00 0.69 0.69 56 1007.2
20260509211455 20 244 1.6 9.7 0.00 0.69 0.69 57 1007.3
20260509210952 20 87 4.8 4.8 0.00 0.69 0.69 54 1007.5
20260509210449 20 132 3.2 12.9 0.00 0.69 0.69 54 1007.3
20260509205944 20 98 4.8 11.3 0.00 0.69 0.69 53 1007.7
20260509205439 20 229 6.4 9.7 0.00 0.69 0.69 56 1007.7
20260509204935 20 288 8.0 12.9 0.00 0.69 0.69 56 1007.6